Other Public Products
Issued by NWS Charleston, SC

Current Version | Previous Version | Graphics & Text | Print | Product List | Glossary On
Versions: 1 2 3 4 5 6 7 8 9 10 11 12 13 14 15 16 17 18 19 20 21 22 23 24 25 26 27 28 29 30 31 32 33 34 35 36 37 38 39 40 41 42 43 44 45 46 47 48 49 50
000
FPUS82 KCHS 261512
OPUCHS

TEST...KCHS/KSAV Gateway Observations...TEST
National Weather Service Charleston SC
1100 AM EDT FRI MAY 26 2017

NOTE: "fair" indicates few or no clouds below 12,000 feet with no
significant weather and/or obstructions to visibility.

SCZ050-WAZ558-NCZ071-TXZ119-213-PAZ071-DCZ001-FLZ074-172-MI076-
NYZ176-178-MAZ016-IL014-TNZ027-NJZ106-GAZ044-MD014-261600-

...Gateway Observations for Charleston International...

CITY           SKY/WX    TMP DP  RH WIND       PRES   REMARKS
Chas Airport   MOSUNNY   77  53  43 W10       30.00F
Seattle        SUNNY     58  49  72 CALM      29.97R
Charlotte      MOSUNNY   74  52  46 W8        29.98S
Dallas DFW     MOSUNNY   85  72  65 S22G30    29.76R HX  91
Dallas Love    PTSUNNY   83  70  64 SW15G29   29.78R
Philladelphia  MOSUNNY   70  55  59 W20G26    29.66S
Wash National  PTSUNNY   71  59  65 W15       29.76R
Baltimore      PTSUNNY   71  60  68 W15G23    29.72R
Miami          MOSUNNY   86  73  65 NW5       30.07S HX  93
Detroit        CLOUDY    59  53  80 NW8       29.85R
Newark         PTSUNNY   69  59  70 W13G24    29.58F
Laguardia      PTSUNNY   67  57  70 W8        29.58S
J F K          PTSUNNY   66  61  84 W12       29.60S
Boston Logan   LGT RAIN  51  50  96 NW12      29.51R FOG
Ft. Lauderdale PTSUNNY   83  69  62 NW6       30.06F
Chicago O`Hare PTSUNNY   68  55  63 SE12      29.86S
Chicago Midway PTSUNNY   67  55  65 VRB7      29.87S
Houston Bush   PTSUNNY   82  72  71 S12G21    29.91R
Houston Hobby  PTSUNNY   83  73  72 S12G23    29.90S
Nashville      CLOUDY    73  56  54 VRB7      29.99R
Atlanta        MOSUNNY   73  53  49 W10       30.06S

$$

GAZ044-118-TXZ119-213-NCZ071-DCZ001-MDZ014-506-PAZ021-071-NJZ106-
NYZ176-178-MAZ106-OHZ011-021-055-MIZ076-KYZ091-ILZ014-INZ047-
MNZ060-ONZ431-261600-

...Gateway Observations for Savannah International...

CITY           SKY/WX    TMP DP  RH WIND       PRES   REMARKS
Savannah Arpt  MOSUNNY   79  50  36 NW12      30.04F
Atlanta        MOSUNNY   73  53  49 W10       30.06S
Charlotte      MOSUNNY   74  52  46 W8        29.98S
Dallas DFW     MOSUNNY   85  72  65 S22G30    29.76R HX  91
Houston Bush   PTSUNNY   82  72  71 S12G21    29.91R
Wash National  PTSUNNY   71  59  65 W15       29.76R
Wash Dulles    CLOUDY    66  55  67 W15G24    29.77R
Baltimore      PTSUNNY   71  60  68 W15G23    29.72R
Philadelphia   MOSUNNY   70  55  59 W20G26    29.66S
Newark         PTSUNNY   69  59  70 W13G24    29.58F
Laguardia      PTSUNNY   67  57  70 W8        29.58S
J F K          PTSUNNY   66  61  84 W12       29.60S
Boston         LGT RAIN  51  50  96 NW12      29.51R FOG
Pittsburg      DRIZZLE   57  57 100 W10       29.81R
Akron          LGT RAIN  58  54  86 NW10      29.84R FOG
Cleveland      CLOUDY    61  52  72 NW12      29.85R
Cincinnati     PTSUNNY   68  58  70 SW6       29.93F
Columbus       MOSUNNY   67  55  66 W10G20    29.89R
Detroit        CLOUDY    59  53  80 NW8       29.85R
Chicago O`Hare PTSUNNY   68  55  63 SE12      29.86S
Minneapolis    CLOUDY    66  53  63 S9        29.74R
Indianapolis   PTSUNNY   70  59  68 SW6       29.92R
Toronto Canada PTSUNNY   63  54  72 N9        29.70R

$$




USA.gov is the U.S. government's official web portal to all federal, state and local government web resources and services.